SL-3 R/B

Satellite information

Favourite Embed

Satellite Type and Status

ROCKET BODYIN ORBIT

Key statistics

Satellite SL-3 R/B at a glance.

Uptime

16184

Days in orbit

Revolutions

≈ 15.4

Per day

Orbit

LEO

Low Earth Orbit

Inclination

81.2

Latest

Satellite identification and parameters

Extended collection of information and parameters for SL-3 R/B.

Object identification

Identified? True

Debris? False

Object name: SL-3 R/B

International designator: 1981-046B

Object number (NORAD): 12465

Object ID (CCSDS): 12465

Country: COMMONWEALTH OF INDEPENDENT STATES (CIS)

Current information (Y/N): Y

RCS size: LARGE

Orbital parameters

Period: 93.698 minutes

Inclination: 81.2353 deg

SMA: 6833.558 km

Apoapsis: 468.812 km

Periapsis: 442.035 km

RAAN: 147.5845 deg

Eccentricy: 0.00195921

Argument of periapsis: 295.5746 deg

Mean anomaly: 64.3468 deg

Mean motion: 15.36853231 rev/day

Mean motion (dot): 0.00010563 rev/day2

B* drag term: 0.00029058577 1/REarth

Two-line elements (TLE)

Creation date: Sept. 8, 2025, 6:18 p.m.

Reference frame: TEME

Reference center: EARTH

Epoch: Sept. 8, 2025, 12:30 p.m. UTC

TLE line 0: 0 SL-3 R/B

TLE line 1: 1 12465U 81046B 25251.52098131 .00010563 00000-0 29059-3 0 9994

TLE line 2: 2 12465 81.2353 147.5845 0019592 295.5746 64.3468 15.36853231410407

Live tracking on map

Real-time ground track for satellite SL-3 R/B.

In-orbit conjunctions

A list of the most updated potential collisions computed for object SL-3 R/B.

Target Orbit TCA Probability of collision Miss distance Type
CZ-4C R/B SSO 2025-02-25 11:09:37 0.0001161892 401.0 (m) ROCKET BODY

Associated space launch

Tselina-D satellites provided detailed observation of radio sources detected by the smaller Tselina-O satellites as part of the Tselina ELINT system.

SL-3 R/B was lifted into orbit during the mission ‘Vostok 8A92M | Tselina-D 29’, on board a Vostok 8A92M space rocket.

The launch took place on May 19, 1981, 3:49 a.m. from 43/3 (43L).

For more information about the launch, click the button.

Launch to space Vostok 8A92M | Tselina-D 29
Vostok 8A92M | Tselina-D 29

Agency: N/A

Status: Launch Successful

Launch date: May 19, 1981, 3:49 a.m. UTC

Rocket: Vostok 8A92M

Launch pad: 43/3 (43L)

Location: Plesetsk Cosmodrome, Russian Federation

...

Latest news about this satellite

There are no fresh news available about this satellite. Check back as we update our databases every day.


Newsletter sign-up

Weekly statistics, charts and insights to help you stay on top of the space industry.